Regional Weather Roundup
Issued by NWS Boston, MA

Home | Current Version | Previous Version | Text Only | Print | Product List | Glossary On
Versions: 1 2 3 4 5 6 7 8 9 10 11 12 13 14 15 16 17 18 19 20 21 22 23 24 25 26 27
000
ASUS41 KBOX 300710
RWRBOX

REGIONAL WEATHER ROUNDUP
NATIONAL WEATHER SERVICE TAUNTON MA
300 AM EDT TUE MAY 30 2017

NOTE:  "FAIR" INDICATES FEW OR NO CLOUDS BELOW 12,000 FEET WITH NO
SIGNIFICANT WEATHER AND/OR OBSTRUCTIONS TO VISIBILITY.

MAZALL-300800-
EASTERN MASSACHUSETTS

CITY           SKY/WX    TMP DP  RH WIND       PRES   REMARKS
BOSTON         CLOUDY    49  48  97 N5        30.16R
BEVERLY        CLOUDY    49  48  97 NE3       30.14S
LAWRENCE       CLOUDY    49  47  93 N3        30.17R FOG
BEDFORD        CLOUDY    48  45  89 CALM      30.14R
BLUE HILL        N/A     47  45  93 NE6       30.13R
NORWOOD        CLOUDY    50  48  93 VRB3      30.15R
MARSHFIELD     CLOUDY    50  50 100 CALM      30.14S
PLYMOUTH       CLOUDY    49  48  97 N5        30.15R FOG
TAUNTON        CLOUDY    49  47  93 CALM      30.15R
NEW BEDFORD    CLOUDY    49  48  97 NE3       30.13S
$$

MAZALL-300800-
CAPE COD AND THE ISLANDS

CITY           SKY/WX    TMP DP  RH WIND       PRES   REMARKS
FALMOUTH         N/A    N/A N/A N/A MISG        N/A
HYANNIS        CLOUDY    51  50  96 N5        30.13R
CHATHAM        CLOUDY    50  50 100 VRB3      30.14R FOG
PROVINCETOWN   CLOUDY    50  48  93 NE5       30.15R
NANTUCKET      CLOUDY    50  49  96 N6        30.14R
MARTHAS VNYRD  CLOUDY    52  51  97 CALM      30.13R
$$

MAZALL-300800-
CENTRAL AND WESTERN MASSACHUSETTS

CITY           SKY/WX    TMP DP  RH WIND       PRES   REMARKS
WORCESTER      FOG       46  45  96 CALM      30.14R VSB 1/2
FITCHBURG      CLOUDY    50  47  89 NE3       30.15S
ORANGE         CLOUDY    49  48  97 SE3       30.14R
SPRINGFIELD    CLOUDY    51  49  91 CALM      30.13R
WESTFIELD      CLOUDY    51  51 100 CALM      30.13S FOG
NORTH ADAMS    CLOUDY    53  48  83 E5        30.10R
$$

RIZALL-300800-
RHODE ISLAND

CITY           SKY/WX    TMP DP  RH WIND       PRES   REMARKS
PROVIDENCE     CLOUDY    50  50 100 NE6       30.16R
NEWPORT        CLOUDY    50  50 100 NE3       30.14R
BLOCK ISLAND   CLOUDY    51  50  96 NE5       30.15R
SMITHFIELD     FOG       48  47  96 CALM      30.15R VSB 1/2
WESTERLY       CLOUDY    52  50  93 CALM      30.15R
$$

CTZALL-300800-
CONNECTICUT

CITY           SKY/WX    TMP DP  RH WIND       PRES   REMARKS
BRADLEY INTL   CLOUDY    52  49  89 SE5       30.14R
HARTFORD       CLOUDY    53  49  86 CALM      30.14S
BRIDGEPORT     CLOUDY    56  51  84 E7        30.14S
DANBURY        CLOUDY    52  52 100 SE5       30.14S FOG
GROTON         CLOUDY    52  49  89 CALM      30.14R
NEW HAVEN      CLOUDY    53  50  89 SE6       30.15S
CHESTER        CLOUDY    52  50  93 CALM      30.15S
MERIDEN        CLOUDY    53  51  93 CALM      30.14F
WILLIMANTIC    CLOUDY    53  49  86 CALM      30.15R
OXFORD           N/A     52  46  82 S5        30.15R
$$

MEZ002-015-021-024-NHZ003-005-008-011-012-014-VTZ005-008-300800-
NORTHERN NEW ENGLAND

CITY           SKY/WX    TMP DP  RH WIND       PRES   REMARKS
PORTLAND ME    CLOUDY    47  46  97 SE8       30.15F FOG
BANGOR ME      LGT RAIN  49  47  93 SE3       30.16S
CONCORD NH     CLOUDY    47  45  93 CALM      30.14S
MANCHESTER NH  CLOUDY    48  44  86 SE3       30.13S
NASHUA NH      CLOUDY    48  47  96 CALM      30.15S
PORTSMOUTH NH  NOT AVBL
JAFFREY NH     CLOUDY    47  47 100 CALM      30.13R FOG
KEENE NH       CLOUDY    48  48 100 CALM      30.14R
BURLINGTON VT  PTCLDY    56  50  80 S15G21    30.01F
MT. WASHINGTON MOCLDY    41  37  87 W18         N/A
$$

NYZ052-076-300800-
EASTERN NEW YORK

CITY           SKY/WX    TMP DP  RH WIND       PRES   REMARKS
ALBANY         CLOUDY    56  51  84 S9G20     30.07S
NEW YORK CITY  CLOUDY    56  51  84 SE8       30.12S
$$

ANZALL-300800-
MARINE OBSERVATIONS

STATION/POSITION TIME  TEMP    WIND        PRES    VSBY  WAVE
                       AIR SEA DIR/SP/G                  HT/PER
                 (UTC) (F)     (DEG/KT/KT) (MB)    (MI)  (FT/S)
BOSTON BUOY      NOT AVBL
BUZZARDS BAY     0600   51      20/ 11/ 12 1020.4R
NANTUCKET SOUND  NOT AVBL
MASS BAY-STELLWA 0604   48 51   10/  6/  8 1020.0R         3/ 6
ISLE OF SHOALS   0600   46      10/  8/  8 1020.7F
S OF BLOCK IS    0655      53                N/A           4/ 7
$$

......................KEY.........................
  SKY/WX - SKY CONDITION/PRESENT WEATHER
  TMP    - TEMPERATURE IN FAHRENHEIT
  DWPT   - DEWPOINT IN FAHRENHEIT
  RH     - RELATIVE HUMIDITY IN PERCENT
  WIND   - DIRECTION AND SPEED IN MPH
  PRES   - MEAN SEA LEVEL PRESSURE IN INCHES OF HG
  WCI    - WIND CHILL INDEX
  VSB    - VISIBILITY IN MILES
  HX     - HEAT INDEX
  TC     - TEMPERATURE IN CELSIUS
  VRB    - VARIABLE WIND DIRECTION
  N/A    - NOT AVAILABLE




USA.gov is the U.S. government's official web portal to all federal, state and local government web resources and services.